JBU1674 MKJP-KFLL

Flight info

Callsign JBU1674
Flight time 1h 41m
Altitude 36000
Route LEXUV5 RADOK UT172 BEMOL UL417 BORDO OLAHS3
Aircraft A320/M-SDE3FGHIRWY/LB1

Departure

Time 2026-05-07 21:32
Airport Norman Manley International Airport (MKJP)

Arrival

Time 2026-05-07 23:13
Airport Fort Lauderdale Hollywood International Airport (KFLL)
Time Latitude Longitude Altitude Speed Heading
2026-05-07 21:18 17.93624 -76.78046 14 ft 0 kts 112°
2026-05-07 21:23 17.93627 -76.78052 15 ft 2 kts 111°
2026-05-07 21:23 17.93633 -76.78068 16 ft 2 kts 116°
2026-05-07 21:23 17.93641 -76.78083 15 ft 2 kts 122°
2026-05-07 21:24 17.93651 -76.78097 17 ft 2 kts 138°
2026-05-07 21:24 17.93665 -76.78105 16 ft 2 kts 189°
2026-05-07 21:24 17.93674 -76.78102 15 ft 0 kts 203°
2026-05-07 21:26 17.93672 -76.78104 15 ft 1 kts 208°
2026-05-07 21:26 17.93649 -76.78114 16 ft 5 kts 201°
2026-05-07 21:27 17.93604 -76.78132 14 ft 8 kts 201°
2026-05-07 21:27 17.93543 -76.78157 14 ft 11 kts 201°
2026-05-07 21:27 17.93517 -76.78204 14 ft 8 kts 276°
2026-05-07 21:27 17.93537 -76.78265 14 ft 11 kts 290°
2026-05-07 21:28 17.93571 -76.78352 14 ft 14 kts 292°
2026-05-07 21:28 17.93613 -76.78457 14 ft 17 kts 292°
2026-05-07 21:28 17.93660 -76.78577 14 ft 19 kts 292°
2026-05-07 21:28 17.93709 -76.78707 14 ft 20 kts 291°
2026-05-07 21:29 17.93764 -76.78851 16 ft 22 kts 291°
2026-05-07 21:29 17.93821 -76.79007 15 ft 24 kts 290°
2026-05-07 21:29 17.93888 -76.79171 15 ft 25 kts 292°
2026-05-07 21:29 17.93953 -76.79350 15 ft 27 kts 291°
2026-05-07 21:30 17.94024 -76.79526 13 ft 25 kts 289°
2026-05-07 21:30 17.94083 -76.79683 13 ft 21 kts 277°
2026-05-07 21:30 17.94102 -76.79830 13 ft 21 kts 279°
2026-05-07 21:30 17.94087 -76.79911 13 ft 7 kts 207°
2026-05-07 21:31 17.94036 -76.79926 13 ft 9 kts 178°
2026-05-07 21:31 17.94004 -76.79889 13 ft 0 kts 110°
2026-05-07 21:31 17.93992 -76.79856 13 ft 23 kts 110°
2026-05-07 21:31 17.93847 -76.79483 14 ft 85 kts 111°
2026-05-07 21:32 17.93561 -76.78743 14 ft 132 kts 114°
2026-05-07 21:32 17.93166 -76.77761 226 ft 153 kts 114°
2026-05-07 21:32 17.92751 -76.76690 652 ft 164 kts 112°
2026-05-07 21:32 17.92285 -76.75556 1098 ft 173 kts 122°
2026-05-07 21:33 17.91308 -76.74837 1466 ft 186 kts 167°
2026-05-07 21:33 17.89980 -76.75049 1811 ft 207 kts 197°
2026-05-07 21:33 17.88585 -76.75629 2187 ft 225 kts 198°
2026-05-07 21:33 17.87092 -76.76276 2728 ft 237 kts 200°
2026-05-07 21:34 17.85555 -76.76946 3445 ft 241 kts 200°
2026-05-07 21:34 17.83996 -76.77623 4194 ft 244 kts 200°
2026-05-07 21:34 17.82556 -76.78576 4935 ft 250 kts 229°
2026-05-07 21:34 17.81840 -76.80225 5621 ft 256 kts 265°
2026-05-07 21:35 17.82113 -76.82055 6146 ft 265 kts 291°
2026-05-07 21:35 17.82809 -76.83915 6598 ft 283 kts 294°
2026-05-07 21:35 17.83593 -76.85857 7135 ft 293 kts 295°
2026-05-07 21:35 17.84641 -76.87693 7865 ft 294 kts 313°
2026-05-07 21:36 17.86170 -76.89093 8667 ft 292 kts 330°
2026-05-07 21:36 17.88024 -76.89941 9402 ft 292 kts 348°
2026-05-07 21:36 17.90008 -76.90150 10105 ft 292 kts
2026-05-07 21:36 17.92089 -76.90090 10502 ft 307 kts
2026-05-07 21:37 17.94275 -76.90032 10792 ft 323 kts
2026-05-07 21:37 17.96585 -76.89974 11046 ft 340 kts
2026-05-07 21:37 17.98993 -76.89912 11374 ft 351 kts
2026-05-07 21:37 18.01452 -76.89850 11891 ft 356 kts
2026-05-07 21:38 18.03942 -76.89788 12465 ft 360 kts
2026-05-07 21:38 18.06457 -76.89728 13028 ft 363 kts
2026-05-07 21:38 18.08995 -76.89668 13598 ft 367 kts
2026-05-07 21:38 18.11525 -76.89608 14099 ft 370 kts
2026-05-07 21:39 18.14113 -76.89548 14599 ft 373 kts
2026-05-07 21:39 18.16719 -76.89485 15119 ft 376 kts
2026-05-07 21:39 18.19341 -76.89421 15641 ft 378 kts
2026-05-07 21:39 18.21980 -76.89354 16148 ft 381 kts
2026-05-07 21:40 18.24639 -76.89285 16661 ft 383 kts
2026-05-07 21:40 18.27313 -76.89214 17176 ft 386 kts
2026-05-07 21:40 18.30010 -76.89144 17676 ft 389 kts
2026-05-07 21:40 18.32690 -76.89078 18178 ft 392 kts
2026-05-07 21:41 18.35430 -76.89011 18633 ft 395 kts
2026-05-07 21:41 18.38179 -76.88942 19123 ft 396 kts
2026-05-07 21:41 18.40939 -76.88874 19627 ft 397 kts
2026-05-07 21:41 18.43707 -76.89056 20133 ft 401 kts 353°
2026-05-07 21:42 18.46450 -76.89642 20629 ft 403 kts 351°
2026-05-07 21:42 18.49199 -76.90260 21119 ft 404 kts 351°
2026-05-07 21:42 18.51955 -76.90882 21595 ft 406 kts 351°
2026-05-07 21:42 18.54681 -76.91497 22057 ft 407 kts 351°
2026-05-07 21:43 18.57454 -76.92121 22514 ft 408 kts 351°
2026-05-07 21:43 18.60233 -76.92743 22949 ft 409 kts 351°
2026-05-07 21:43 18.63022 -76.93363 23370 ft 410 kts 351°
2026-05-07 21:43 18.65822 -76.93987 23741 ft 412 kts 351°
2026-05-07 21:44 18.68630 -76.94614 24062 ft 414 kts 351°
2026-05-07 21:44 18.71452 -76.95246 24367 ft 416 kts 351°
2026-05-07 21:44 18.74248 -76.95873 24665 ft 418 kts 351°
2026-05-07 21:44 18.77100 -76.96511 24961 ft 420 kts 351°
2026-05-07 21:45 18.79966 -76.97150 25247 ft 422 kts 351°
2026-05-07 21:45 18.82847 -76.97795 25532 ft 424 kts 351°
2026-05-07 21:45 18.85741 -76.98441 25821 ft 426 kts 350°
2026-05-07 21:45 18.88650 -76.99094 26104 ft 428 kts 350°
2026-05-07 21:46 18.91572 -76.99754 26384 ft 431 kts 350°
2026-05-07 21:46 18.94510 -77.00417 26660 ft 432 kts 350°
2026-05-07 21:46 18.97457 -77.01082 26931 ft 434 kts 350°
2026-05-07 21:46 19.00381 -77.01740 27190 ft 436 kts 350°
2026-05-07 21:47 19.03358 -77.02408 27458 ft 438 kts 350°
2026-05-07 21:47 19.06350 -77.03081 27731 ft 440 kts 349°
2026-05-07 21:47 19.09350 -77.03758 28006 ft 442 kts 349°
2026-05-07 21:47 19.12367 -77.04439 28286 ft 444 kts 349°
2026-05-07 21:48 19.15396 -77.05121 28559 ft 446 kts 349°
2026-05-07 21:48 19.18441 -77.05807 28834 ft 448 kts 349°
2026-05-07 21:48 19.21454 -77.06489 29103 ft 450 kts 349°
2026-05-07 21:48 19.24524 -77.07181 29372 ft 452 kts 349°
2026-05-07 21:49 19.27608 -77.07877 29631 ft 454 kts 349°
2026-05-07 21:49 19.30701 -77.08573 29888 ft 456 kts 349°
2026-05-07 21:49 19.33809 -77.09273 30184 ft 456 kts 348°
2026-05-07 21:49 19.36897 -77.10036 30515 ft 455 kts 347°
2026-05-07 21:50 19.39960 -77.10890 30853 ft 454 kts 345°
2026-05-07 21:50 19.42997 -77.11802 31191 ft 453 kts 345°
2026-05-07 21:50 19.46021 -77.12736 31522 ft 452 kts 344°
2026-05-07 21:50 19.49000 -77.13654 31852 ft 452 kts 345°
2026-05-07 21:51 19.52017 -77.14566 32194 ft 451 kts 345°
2026-05-07 21:51 19.55036 -77.15457 32532 ft 450 kts 345°
2026-05-07 21:51 19.58052 -77.16332 32875 ft 449 kts 345°
2026-05-07 21:51 19.61066 -77.17200 33215 ft 448 kts 345°
2026-05-07 21:52 19.64072 -77.18067 33559 ft 448 kts 345°
2026-05-07 21:52 19.67073 -77.18936 33906 ft 447 kts 345°
2026-05-07 21:52 19.70028 -77.19794 34214 ft 446 kts 345°
2026-05-07 21:52 19.73018 -77.20662 34523 ft 445 kts 345°
2026-05-07 21:53 19.75996 -77.21530 34828 ft 444 kts 345°
2026-05-07 21:53 19.78971 -77.22400 35131 ft 443 kts 345°
2026-05-07 21:53 19.81934 -77.23267 35430 ft 441 kts 345°
2026-05-07 21:53 19.84894 -77.24130 35708 ft 440 kts 345°
2026-05-07 21:54 19.87846 -77.24990 35946 ft 440 kts 345°
2026-05-07 21:54 19.90798 -77.25850 35997 ft 441 kts 345°
2026-05-07 21:54 19.96676 -77.27575 36006 ft 441 kts 344°
2026-05-07 21:55 20.02591 -77.29311 36003 ft 441 kts 345°
2026-05-07 21:55 20.08510 -77.31042 36002 ft 441 kts 345°
2026-05-07 21:56 20.14425 -77.32774 36000 ft 441 kts 344°
2026-05-07 21:56 20.20296 -77.34492 35994 ft 441 kts 344°
2026-05-07 21:57 20.26213 -77.36223 35993 ft 441 kts 344°
2026-05-07 21:57 20.32123 -77.37964 35993 ft 441 kts 344°
2026-05-07 21:58 20.38037 -77.39703 35993 ft 441 kts 344°
2026-05-07 21:58 20.43950 -77.41441 35994 ft 441 kts 344°
2026-05-07 21:59 20.49818 -77.43166 35992 ft 440 kts 344°
2026-05-07 21:59 20.55727 -77.44898 35991 ft 440 kts 344°
2026-05-07 22:00 20.61641 -77.46607 35990 ft 440 kts 345°
2026-05-07 22:00 20.67557 -77.48296 35993 ft 440 kts 345°
2026-05-07 22:01 20.73434 -77.49964 35988 ft 440 kts 345°
2026-05-07 22:01 20.79347 -77.51654 35986 ft 440 kts 345°
2026-05-07 22:02 20.85257 -77.53351 35986 ft 440 kts 345°
2026-05-07 22:02 20.91159 -77.55061 35980 ft 440 kts 345°
2026-05-07 22:03 20.97026 -77.56755 35984 ft 439 kts 345°
2026-05-07 22:03 21.02929 -77.58445 35985 ft 439 kts 345°
2026-05-07 22:04 21.08828 -77.60132 35990 ft 439 kts 345°
2026-05-07 22:04 21.14719 -77.61833 35995 ft 438 kts 345°
2026-05-07 22:05 21.20564 -77.63522 36000 ft 438 kts 345°
2026-05-07 22:05 21.26446 -77.65218 36008 ft 437 kts 344°
2026-05-07 22:06 21.32320 -77.66916 36014 ft 437 kts 344°
2026-05-07 22:06 21.38186 -77.68615 36017 ft 436 kts 344°
2026-05-07 22:07 21.44007 -77.70299 36015 ft 436 kts 344°
2026-05-07 22:07 21.49861 -77.71993 36016 ft 436 kts 344°
2026-05-07 22:08 21.55714 -77.73693 36015 ft 435 kts 344°
2026-05-07 22:08 21.61558 -77.75390 36011 ft 435 kts 344°
2026-05-07 22:09 21.67363 -77.77068 36011 ft 435 kts 344°
2026-05-07 22:09 21.73197 -77.78759 36015 ft 434 kts 344°
2026-05-07 22:10 21.79030 -77.80459 36013 ft 434 kts 344°
2026-05-07 22:10 21.84860 -77.82159 36013 ft 434 kts 344°
2026-05-07 22:11 21.90682 -77.83852 36011 ft 433 kts 344°
2026-05-07 22:11 21.96466 -77.85515 36011 ft 433 kts 344°
2026-05-07 22:12 22.02280 -77.87190 36012 ft 433 kts 344°
2026-05-07 22:12 22.08102 -77.88868 36018 ft 432 kts 344°
2026-05-07 22:13 22.13912 -77.90550 36012 ft 432 kts 344°
2026-05-07 22:13 22.19718 -77.92235 36014 ft 432 kts 344°
2026-05-07 22:14 22.25489 -77.93903 36011 ft 432 kts 344°
2026-05-07 22:14 22.31294 -77.95585 36013 ft 432 kts 344°
2026-05-07 22:15 22.37098 -77.97272 36013 ft 432 kts 344°
2026-05-07 22:15 22.42865 -77.98943 36016 ft 432 kts 344°
2026-05-07 22:16 22.48669 -78.00626 36020 ft 432 kts 344°
2026-05-07 22:16 22.54468 -78.02319 36025 ft 432 kts 343°
2026-05-07 22:17 22.60268 -78.04017 36030 ft 432 kts 343°
2026-05-07 22:17 22.66061 -78.05703 36021 ft 431 kts 343°
2026-05-07 22:18 22.74712 -78.08225 36022 ft 431 kts 343°
2026-05-07 22:19 22.80504 -78.09914 36026 ft 431 kts 343°
2026-05-07 22:19 22.86286 -78.11633 36024 ft 431 kts 343°
2026-05-07 22:20 22.91083 -78.13075 36026 ft 431 kts 343°
2026-05-07 22:20 22.96375 -78.14676 36024 ft 430 kts 343°
2026-05-07 22:21 23.02149 -78.16408 36026 ft 431 kts 343°
2026-05-07 22:21 23.07928 -78.18127 36031 ft 430 kts 343°
2026-05-07 22:22 23.13703 -78.19846 36032 ft 430 kts 343°
2026-05-07 22:22 23.19428 -78.21561 36033 ft 430 kts 343°
2026-05-07 22:23 23.25196 -78.23289 36030 ft 430 kts 343°
2026-05-07 22:23 23.30959 -78.25024 36037 ft 430 kts 343°
2026-05-07 22:24 23.36716 -78.26759 36036 ft 429 kts 343°
2026-05-07 22:24 23.42440 -78.28475 36041 ft 429 kts 343°
2026-05-07 22:25 23.48192 -78.30208 36040 ft 429 kts 342°
2026-05-07 22:25 23.53940 -78.31947 36040 ft 429 kts 342°
2026-05-07 22:26 23.59649 -78.33671 36039 ft 429 kts 342°
2026-05-07 22:26 23.65397 -78.35400 36039 ft 428 kts 342°
2026-05-07 22:27 23.71137 -78.37137 36038 ft 428 kts 342°
2026-05-07 22:27 23.76880 -78.38873 36038 ft 428 kts 342°
2026-05-07 22:28 23.82619 -78.40607 36041 ft 428 kts 342°
2026-05-07 22:28 23.88289 -78.42327 36041 ft 427 kts 342°
2026-05-07 22:29 23.94021 -78.44069 36031 ft 427 kts 342°
2026-05-07 22:29 23.99786 -78.45669 36031 ft 429 kts 349°
2026-05-07 22:30 24.05783 -78.45849 36033 ft 433 kts 357°
2026-05-07 22:30 24.11803 -78.45810 36034 ft 432 kts 357°
2026-05-07 22:31 24.17824 -78.45773 36034 ft 432 kts 357°
2026-05-07 22:31 24.23799 -78.45736 36036 ft 432 kts 357°
2026-05-07 22:32 24.29814 -78.45699 36034 ft 432 kts 357°
2026-05-07 22:32 24.35826 -78.45665 35883 ft 432 kts 357°
2026-05-07 22:32 24.38832 -78.45647 35646 ft 432 kts 357°
2026-05-07 22:33 24.41841 -78.45629 35408 ft 433 kts 357°
2026-05-07 22:33 24.44828 -78.45615 35173 ft 435 kts 357°
2026-05-07 22:33 24.47849 -78.45606 34941 ft 434 kts 357°
2026-05-07 22:33 24.50870 -78.45602 34704 ft 434 kts 357°
2026-05-07 22:34 24.53904 -78.45601 33947 ft 438 kts 357°
2026-05-07 22:34 24.56967 -78.45598 32931 ft 443 kts 357°
2026-05-07 22:34 24.60066 -78.45593 31979 ft 447 kts 358°
2026-05-07 22:34 24.63164 -78.45587 31266 ft 445 kts 358°
2026-05-07 22:35 24.66280 -78.45581 30382 ft 448 kts 358°
2026-05-07 22:35 24.69381 -78.45575 29724 ft 444 kts 358°
2026-05-07 22:35 24.72445 -78.45567 29244 ft 435 kts 358°
2026-05-07 22:35 24.75432 -78.45556 28879 ft 424 kts 358°
2026-05-07 22:36 24.78328 -78.45544 28277 ft 421 kts 358°
2026-05-07 22:36 24.81243 -78.45535 27693 ft 417 kts 358°
2026-05-07 22:36 24.84130 -78.45529 27110 ft 413 kts 358°
2026-05-07 22:36 24.86993 -78.45524 26555 ft 409 kts 358°
2026-05-07 22:37 24.89828 -78.45523 26012 ft 405 kts 358°
2026-05-07 22:37 24.92613 -78.45536 25821 ft 395 kts 357°
2026-05-07 22:37 24.95340 -78.45557 25735 ft 398 kts 357°
2026-05-07 22:37 24.98108 -78.45578 25631 ft 398 kts 357°
2026-05-07 22:38 25.00873 -78.45598 25528 ft 397 kts 357°
2026-05-07 22:38 25.03631 -78.45617 25425 ft 396 kts 357°
2026-05-07 22:38 25.06387 -78.45634 25317 ft 396 kts 357°
2026-05-07 22:38 25.09140 -78.45647 25219 ft 395 kts 358°
2026-05-07 22:39 25.11884 -78.45657 25114 ft 394 kts 358°
2026-05-07 22:39 25.14625 -78.45667 25010 ft 394 kts 358°
2026-05-07 22:39 25.17323 -78.45677 24909 ft 393 kts 358°
2026-05-07 22:39 25.20052 -78.45688 24806 ft 392 kts 358°
2026-05-07 22:40 25.22779 -78.45697 24704 ft 391 kts 358°
2026-05-07 22:40 25.25498 -78.45710 24602 ft 390 kts 357°
2026-05-07 22:40 25.28213 -78.45727 24504 ft 390 kts 357°
2026-05-07 22:40 25.30921 -78.45743 24397 ft 389 kts 357°
2026-05-07 22:41 25.33626 -78.45758 24298 ft 388 kts 357°
2026-05-07 22:41 25.36305 -78.45989 24195 ft 385 kts 346°
2026-05-07 22:41 25.38819 -78.46952 24093 ft 382 kts 332°
2026-05-07 22:41 25.40984 -78.48566 23878 ft 382 kts 319°
2026-05-07 22:42 25.42732 -78.50778 23266 ft 384 kts 303°
2026-05-07 22:42 25.43905 -78.53424 22770 ft 384 kts 295°
2026-05-07 22:42 25.44927 -78.56139 22269 ft 381 kts 295°
2026-05-07 22:42 25.45953 -78.58830 21779 ft 378 kts 295°
2026-05-07 22:43 25.46979 -78.61500 21298 ft 376 kts 295°
2026-05-07 22:43 25.48002 -78.64152 20815 ft 373 kts 295°
2026-05-07 22:43 25.49017 -78.66782 20343 ft 371 kts 295°
2026-05-07 22:43 25.50024 -78.69399 19862 ft 368 kts 295°
2026-05-07 22:44 25.51006 -78.71962 19394 ft 365 kts 295°
2026-05-07 22:44 25.51988 -78.74531 19036 ft 359 kts 295°
2026-05-07 22:44 25.52946 -78.77040 18888 ft 347 kts 295°
2026-05-07 22:44 25.53893 -78.79513 18493 ft 350 kts 295°
2026-05-07 22:45 25.54840 -78.81991 17997 ft 348 kts 295°
2026-05-07 22:45 25.55778 -78.84450 17547 ft 346 kts 295°
2026-05-07 22:45 25.56713 -78.86903 17104 ft 345 kts 295°
2026-05-07 22:45 25.57644 -78.89346 16663 ft 344 kts 295°
2026-05-07 22:46 25.58571 -78.91784 16222 ft 343 kts 295°
2026-05-07 22:46 25.59496 -78.94212 15779 ft 342 kts 295°
2026-05-07 22:46 25.60406 -78.96600 15352 ft 340 kts 295°
2026-05-07 22:46 25.61323 -78.99012 14914 ft 339 kts 296°
2026-05-07 22:47 25.62239 -79.01421 14473 ft 339 kts 296°
2026-05-07 22:47 25.63150 -79.03821 14044 ft 338 kts 296°
2026-05-07 22:47 25.64058 -79.06220 13596 ft 337 kts 296°
2026-05-07 22:47 25.64954 -79.08608 13183 ft 335 kts 295°
2026-05-07 22:48 25.65841 -79.10980 12772 ft 332 kts 295°
2026-05-07 22:48 25.66722 -79.13340 12362 ft 330 kts 295°
2026-05-07 22:48 25.67597 -79.15683 11961 ft 328 kts 295°
2026-05-07 22:48 25.68469 -79.18012 11556 ft 326 kts 295°
2026-05-07 22:49 25.69325 -79.20295 11164 ft 324 kts 295°
2026-05-07 22:49 25.70187 -79.22592 10771 ft 322 kts 295°
2026-05-07 22:49 25.71045 -79.24881 10379 ft 320 kts 295°
2026-05-07 22:49 25.71889 -79.27138 10169 ft 311 kts 295°
2026-05-07 22:50 25.72701 -79.29314 10031 ft 301 kts 295°
2026-05-07 22:50 25.73490 -79.31438 9816 ft 294 kts 294°
2026-05-07 22:50 25.74262 -79.33536 9587 ft 294 kts 294°
2026-05-07 22:50 25.75030 -79.35629 9356 ft 293 kts 294°
2026-05-07 22:51 25.75795 -79.37719 9109 ft 292 kts 294°
2026-05-07 22:51 25.76545 -79.39772 8872 ft 291 kts 294°
2026-05-07 22:51 25.77304 -79.41845 8639 ft 290 kts 294°
2026-05-07 22:51 25.78062 -79.43910 8400 ft 288 kts 294°
2026-05-07 22:52 25.78818 -79.45969 8163 ft 287 kts 293°
2026-05-07 22:52 25.79565 -79.48015 7932 ft 286 kts 293°
2026-05-07 22:52 25.80311 -79.50057 7703 ft 285 kts 293°
2026-05-07 22:52 25.81053 -79.52090 7467 ft 284 kts 293°
2026-05-07 22:53 25.81791 -79.54117 7229 ft 282 kts 293°
2026-05-07 22:53 25.82518 -79.56110 7004 ft 282 kts 293°
2026-05-07 22:53 25.83253 -79.58118 6768 ft 280 kts 293°
2026-05-07 22:53 25.83986 -79.60116 6544 ft 279 kts 293°
2026-05-07 22:54 25.84726 -79.62103 6312 ft 278 kts 294°
2026-05-07 22:54 25.85472 -79.64072 6105 ft 276 kts 294°
2026-05-07 22:54 25.86246 -79.66019 6023 ft 275 kts 295°
2026-05-07 22:54 25.87067 -79.67939 6032 ft 275 kts 296°
2026-05-07 22:55 25.87904 -79.69852 6031 ft 276 kts 297°
2026-05-07 22:55 25.88744 -79.71764 6029 ft 275 kts 297°
2026-05-07 22:55 25.89566 -79.73646 6029 ft 275 kts 296°
2026-05-07 22:55 25.90397 -79.75565 6026 ft 275 kts 296°
2026-05-07 22:56 25.91217 -79.77480 6022 ft 275 kts 296°
2026-05-07 22:56 25.92037 -79.79399 6030 ft 274 kts 296°
2026-05-07 22:56 25.92855 -79.81317 6025 ft 275 kts 296°
2026-05-07 22:56 25.93670 -79.83233 6029 ft 274 kts 296°
2026-05-07 22:57 25.94484 -79.85146 6027 ft 274 kts 297°
2026-05-07 22:57 25.95284 -79.87026 6023 ft 274 kts 296°
2026-05-07 22:57 25.96113 -79.88977 6018 ft 274 kts 296°
2026-05-07 22:57 25.96927 -79.90895 6022 ft 274 kts 296°
2026-05-07 22:58 25.97728 -79.92781 6015 ft 273 kts 296°
2026-05-07 22:58 25.98555 -79.94683 6016 ft 273 kts 301°
2026-05-07 22:58 25.99677 -79.96372 6010 ft 272 kts 314°
2026-05-07 22:58 26.00950 -79.97930 6011 ft 273 kts 313°
2026-05-07 22:59 26.02220 -79.99489 6012 ft 272 kts 313°
2026-05-07 22:59 26.03489 -80.01052 6008 ft 272 kts 313°
2026-05-07 22:59 26.04753 -80.02612 6004 ft 272 kts 313°
2026-05-07 22:59 26.06017 -80.04177 6009 ft 272 kts 313°
2026-05-07 23:00 26.07281 -80.05743 6010 ft 272 kts 313°
2026-05-07 23:00 26.08545 -80.07307 6010 ft 272 kts 313°
2026-05-07 23:00 26.09809 -80.08873 6006 ft 272 kts 313°
2026-05-07 23:00 26.11060 -80.10420 6005 ft 272 kts 313°
2026-05-07 23:01 26.12313 -80.11970 6007 ft 264 kts 313°
2026-05-07 23:01 26.13504 -80.13448 6003 ft 249 kts 311°
2026-05-07 23:01 26.14389 -80.14935 6009 ft 234 kts 296°
2026-05-07 23:01 26.14902 -80.16578 5966 ft 229 kts 283°
2026-05-07 23:02 26.15041 -80.18348 5865 ft 231 kts 271°
2026-05-07 23:02 26.15037 -80.20133 5775 ft 230 kts 271°
2026-05-07 23:02 26.15042 -80.21908 5687 ft 230 kts 271°
2026-05-07 23:02 26.15050 -80.23684 5589 ft 228 kts 272°
2026-05-07 23:03 26.15059 -80.25422 5497 ft 227 kts 271°
2026-05-07 23:03 26.15066 -80.27182 5406 ft 227 kts 271°
2026-05-07 23:03 26.15074 -80.28933 5314 ft 226 kts 271°
2026-05-07 23:03 26.15083 -80.30679 5224 ft 225 kts 271°
2026-05-07 23:04 26.15093 -80.32420 5128 ft 224 kts 271°
2026-05-07 23:04 26.15101 -80.34150 5034 ft 224 kts 271°
2026-05-07 23:04 26.15093 -80.35879 5014 ft 223 kts 270°
2026-05-07 23:04 26.15060 -80.37608 5016 ft 223 kts 269°
2026-05-07 23:05 26.15021 -80.39340 5017 ft 224 kts 269°
2026-05-07 23:05 26.14979 -80.41071 5012 ft 224 kts 269°
2026-05-07 23:05 26.14937 -80.42806 5015 ft 224 kts 269°
2026-05-07 23:05 26.14897 -80.44542 5015 ft 225 kts 269°
2026-05-07 23:06 26.14575 -80.46211 4911 ft 228 kts 243°
2026-05-07 23:06 26.13503 -80.47494 4544 ft 231 kts 210°
2026-05-07 23:06 26.11960 -80.47932 4169 ft 233 kts 179°
2026-05-07 23:06 26.10373 -80.47747 4007 ft 223 kts 163°
2026-05-07 23:07 26.09099 -80.46885 4010 ft 210 kts 134°
2026-05-07 23:07 26.08263 -80.45619 4013 ft 208 kts 115°
2026-05-07 23:07 26.07833 -80.44005 4015 ft 221 kts 94°
2026-05-07 23:07 26.07808 -80.42302 4011 ft 216 kts 90°
2026-05-07 23:08 26.07804 -80.40659 3959 ft 212 kts 89°
2026-05-07 23:08 26.07799 -80.39030 3754 ft 209 kts 90°
2026-05-07 23:08 26.07793 -80.37448 3514 ft 206 kts 90°
2026-05-07 23:08 26.07786 -80.35861 3263 ft 204 kts 90°
2026-05-07 23:09 26.07780 -80.34290 3012 ft 201 kts 90°
2026-05-07 23:09 26.07773 -80.32748 2742 ft 198 kts 91°
2026-05-07 23:09 26.07767 -80.31231 2484 ft 194 kts 92°
2026-05-07 23:09 26.07761 -80.29774 2250 ft 184 kts 91°
2026-05-07 23:10 26.07755 -80.28403 2014 ft 166 kts 92°
2026-05-07 23:10 26.07750 -80.27199 1831 ft 146 kts 94°
2026-05-07 23:10 26.07745 -80.26139 1652 ft 138 kts 92°
2026-05-07 23:10 26.07739 -80.25074 1466 ft 136 kts 92°
2026-05-07 23:11 26.07731 -80.24019 1272 ft 136 kts 93°
2026-05-07 23:11 26.07719 -80.22972 1054 ft 136 kts 92°
2026-05-07 23:11 26.07724 -80.21915 989 ft 137 kts 91°
2026-05-07 23:11 26.07714 -80.20861 860 ft 136 kts 94°
2026-05-07 23:12 26.07718 -80.19814 652 ft 137 kts 94°
2026-05-07 23:12 26.07710 -80.18765 450 ft 137 kts 94°
2026-05-07 23:12 26.07702 -80.17724 268 ft 136 kts 96°
2026-05-07 23:12 26.07700 -80.16691 69 ft 133 kts 94°
2026-05-07 23:13 26.07689 -80.15723 17 ft 106 kts 94°
2026-05-07 23:13 26.07685 -80.15106 16 ft 56 kts 88°
2026-05-07 23:13 26.07675 -80.14728 19 ft 41 kts 99°
2026-05-07 23:13 26.07582 -80.14517 18 ft 14 kts 151°
2026-05-07 23:14 26.07574 -80.14515 17 ft 1 kts 170°
2026-05-07 23:14 26.07565 -80.14529 17 ft 4 kts 246°
2026-05-07 23:14 26.07561 -80.14592 17 ft 12 kts 274°
2026-05-07 23:14 26.07559 -80.14698 17 ft 15 kts 261°
2026-05-07 23:15 26.07495 -80.14766 16 ft 14 kts 213°
2026-05-07 23:15 26.07414 -80.14841 16 ft 16 kts 217°
2026-05-07 23:15 26.07302 -80.14852 16 ft 17 kts 180°
2026-05-07 23:15 26.07180 -80.14853 16 ft 14 kts 179°
2026-05-07 23:16 26.07076 -80.14846 16 ft 16 kts 156°
2026-05-07 23:16 26.06996 -80.14757 17 ft 18 kts 134°
2026-05-07 23:16 26.06901 -80.14669 16 ft 13 kts 143°
2026-05-07 23:16 26.06854 -80.14625 16 ft 14 kts 139°
2026-05-07 23:17 26.06833 -80.14605 16 ft 4 kts 137°
2026-05-07 23:17 26.06819 -80.14554 16 ft 9 kts 96°
2026-05-07 23:17 26.06820 -80.14440 16 ft 10 kts 82°
2026-05-07 23:17 26.06841 -80.14430 16 ft 3 kts 352°
2026-05-07 23:18 26.06872 -80.14431 16 ft 6 kts
2026-05-07 23:18 26.06888 -80.14431 16 ft 0 kts